Montrose, CO

8:40 PM MDT on October 22, 2017 (GMT -0600)
Montrose Regional

Weather History for KMTJ - May, 2015

Change the Weather History Date:

Tuesday, May 5, 2015

  Actual Average Record
Temperature  
Mean Temperature 53 °F 55 °F  
Max Temperature 57 °F 69 °F 86 °F (2000)
Min Temperature 49 °F 40 °F 30 °F (1999)
Degree Days  
Heating Degree Days 12 10  
Month to date heating degree days 26 55  
Since 1 July heating degree days 5128 5993  
Cooling Degree Days 0 0  
Month to date cooling degree days 0 0  
Year to date cooling degree days 0 0  
Growing Degree Days 2 (Base 50)    
Moisture  
Dew Point 46 °F    
Average Humidity 78    
Maximum Humidity 93    
Minimum Humidity 62    
Precipitation  
Precipitation 0.15 in 0.04 in 0.67 in (2001)
Month to date precipitation 0.18 0.23  
Year to date precipitation 2.77 3.45  
Sea Level Pressure  
Sea Level Pressure 29.76 in    
Wind  
Wind Speed 5 mph (SSE)    
Max Wind Speed 12 mph    
Max Gust Speed 14 mph    
Visibility 10 miles    
Events Rain    
T = Trace of Precipitation, MM = Missing Value Source: NWS Daily Summary

Daily Weather History Graph

Daily Weather History Graph

Search for Another Location

Airport or City:

Trip Planner

Search our weather history database for the weather conditions in past years. The results will help you decide how hot, cold, wet, or windy it might be!

Date:

Astronomy

May. 05, 2015 Rise Set
Actual Time 6:10 AM MDT 8:07 PM MDT
Civil Twilight 5:41 AM MDT 8:36 PM MDT
Nautical Twilight 5:06 AM MDT 9:11 PM MDT
Astronomical Twilight 4:28 AM MDT 9:49 PM MDT
Moon 9:46 PM MDT (5/5) 7:23 AM MDT (5/5)
Length of Visible Light 14h 54m
Length of Day
13h 56m
Full, 97% of the Moon is Illuminated
May 5
Full
May 11
Last Quarter
May 17
New
May 25
First Quarter
Jun 2
Full

Hourly Weather History & Observations

Time (MDT) Temp. Dew Point Humidity Pressure Visibility Wind Dir Wind Speed Gust Speed Precip Events Conditions
12:53 AM 51.1 °F 44.1 °F 77% 29.81 in 10.0 mi SSE 8.1 mph - N/A   Overcast
1:53 AM 51.1 °F 45.0 °F 80% 29.80 in 10.0 mi ESE 8.1 mph - N/A   Overcast
2:53 AM 52.0 °F 46.0 °F 80% 29.79 in 10.0 mi South 6.9 mph - 0.00 in   Overcast
3:53 AM 51.1 °F 45.0 °F 80% 29.78 in 10.0 mi East 3.5 mph - 0.01 in Rain Light Rain
4:53 AM 50.0 °F 46.0 °F 86% 29.77 in 10.0 mi Calm Calm - 0.00 in   Partly Cloudy
5:53 AM 48.9 °F 46.0 °F 90% 29.76 in 10.0 mi SSE 8.1 mph - N/A   Overcast
6:53 AM 50.0 °F 45.0 °F 83% 29.78 in 10.0 mi Calm Calm - N/A   Mostly Cloudy
7:53 AM 50.0 °F 45.0 °F 83% 29.78 in 10.0 mi South 3.5 mph - N/A   Scattered Clouds
8:53 AM 52.0 °F 46.0 °F 80% 29.78 in 10.0 mi Calm Calm - N/A   Partly Cloudy
9:53 AM 54.0 °F 45.0 °F 72% 29.77 in 10.0 mi Calm Calm - 0.00 in Rain Light Rain
10:53 AM 55.0 °F 46.9 °F 74% 29.77 in 9.0 mi North 4.6 mph - 0.01 in Rain Light Rain
11:53 AM 55.9 °F 46.0 °F 69% 29.75 in 10.0 mi NNW 5.8 mph - 0.00 in   Overcast
12:53 PM 57.0 °F 45.0 °F 64% 29.73 in 10.0 mi North 8.1 mph - 0.00 in   Mostly Cloudy
1:53 PM 55.0 °F 46.9 °F 74% 29.72 in 9.0 mi West 3.5 mph - 0.01 in Rain Light Rain
2:35 PM 54.0 °F 48.9 °F 83% 29.86 in 10.0 mi WSW 5.8 mph - 0.00 in Rain Light Rain
2:53 PM 53.1 °F 46.9 °F 80% 29.72 in 10.0 mi West 4.6 mph - 0.01 in Rain Light Rain
3:19 PM 53.1 °F 48.0 °F 83% 29.87 in 10.0 mi SSE 9.2 mph - 0.00 in Rain Light Rain
3:35 PM 53.1 °F 46.0 °F 77% 29.86 in 10.0 mi SE 5.8 mph - 0.00 in Rain Light Rain
3:53 PM 54.0 °F 46.0 °F 75% 29.71 in 10.0 mi ESE 8.1 mph - 0.00 in   Overcast
4:09 PM 55.0 °F 45.0 °F 69% 29.85 in 10.0 mi SSE 9.2 mph - N/A   Overcast
4:53 PM 54.0 °F 48.0 °F 80% 29.70 in 5.0 mi SSE 8.1 mph - 0.02 in Rain Rain
5:53 PM 55.0 °F 48.0 °F 77% 29.70 in 10.0 mi East 8.1 mph - 0.01 in   Overcast
6:53 PM 55.9 °F 46.9 °F 72% 29.69 in 10.0 mi ESE 6.9 mph - N/A   Overcast
7:53 PM 55.0 °F 46.0 °F 72% 29.69 in 10.0 mi SSE 5.8 mph - N/A   Overcast
8:53 PM 52.0 °F 48.0 °F 86% 29.72 in 10.0 mi NW 6.9 mph - N/A   Overcast
9:53 PM 51.1 °F 48.0 °F 89% 29.74 in 9.0 mi NW 3.5 mph - 0.02 in Rain Light Rain
10:53 PM 50.0 °F 48.9 °F 96% 29.73 in 10.0 mi SSE 6.9 mph - 0.05 in   Overcast
11:53 PM 51.1 °F 48.9 °F 92% 29.72 in 10.0 mi SE 5.8 mph - 0.00 in   Overcast